This is the latest recevied weather packets stored in our database for station/object K1ADM. If no packets are shown the sender has not sent any weather packets the latest 10 day(s).
| Time | Temp. | Humidity | Pressure | Rain* | Wind** | Luminosity | Snow |
|---|---|---|---|---|---|---|---|
| 1777573802 | 8.33° C | 88% | 1006.7 hPa | 1.02 mm | - | - | - |
| 1777571402 | 8.33° C | 88% | 1006.6 hPa | 0.25 mm | - | - | - |
| 1777571102 | 8.33° C | 88% | 1006.9 hPa | 0 mm | - | - | - |
| 1777567202 | 8.33° C | 89% | 1007.4 hPa | 0 mm | - | - | - |
| 1777566002 | 8.33° C | 89% | 1007.6 hPa | 0 mm | - | - | - |
| 1777563303 | 8.33° C | 88% | 1008.1 hPa | 0.25 mm | - | - | - |
| 1777561503 | 8.33° C | 88% | 1008.2 hPa | 0 mm | - | - | - |
| 1777561202 | 8.33° C | 88% | 1008.4 hPa | 0 mm | - | - | - |
| 1777559402 | 7.78° C | 88% | 1008.4 hPa | 0 mm | - | - | - |
| 1777555503 | 7.78° C | 88% | 1008.9 hPa | 0.51 mm | - | - | - |
| 1777551603 | 8.33° C | 88% | 1009.3 hPa | 2.54 mm | - | - | - |
| 1777549803 | 8.33° C | 88% | 1009.4 hPa | 4.57 mm | - | - | - |
| 1777546503 | 7.22° C | 88% | 1009 hPa | 4.32 mm | - | - | - |
| 1777545603 | 7.22° C | 88% | 1009 hPa | 3.81 mm | - | - | - |
| 1777544403 | 7.22° C | 89% | 1008.6 hPa | 2.54 mm | - | - | - |
| 1777542903 | 7.22° C | 89% | 1008.8 hPa | 2.54 mm | - | - | - |
| 1777539303 | 6.67° C | 89% | 1009.2 hPa | 1.52 mm | - | - | - |
| 1777536903 | 6.67° C | 89% | 1009.5 hPa | 0.76 mm | - | - | - |
| 1777533903 | 6.67° C | 88% | 1010.2 hPa | 0.51 mm | - | - | - |
| 1777532703 | 6.67° C | 88% | 1010.3 hPa | 0.76 mm | - | - | - |
| 1777530903 | 6.67° C | 88% | 1010.6 hPa | 0.25 mm | - | - | - |
| 1777529703 | 6.67° C | 88% | 1011 hPa | 0.51 mm | - | - | - |
| 1777525803 | 6.67° C | 88% | 1011.7 hPa | 0.51 mm | - | - | - |
| 1777523703 | 6.67° C | 88% | 1012.3 hPa | 0.25 mm | - | - | - |
| 1777523104 | 6.67° C | 88% | 1012.4 hPa | 0.25 mm | - | - | - |
* Rain latest hour (hover to see other rain measurements)
** Current wind speed in m/s (hover to see current wind gust speed)